N7PDI-1 Weather Reports


time (UTC)temp
C
wind
direction
speed
KPH
gust
KPH
rain 1hr
cm
rain 24hr
cm
rain mn
cm
humidity
%
barometer
mb
20260502115831 -1 100 0.0 0.0 0.00 0.00 0.00
20260502114009 -1 100 0.0 0.0 0.00 0.00 0.00
20260502113145 -1 100 0.0 0.0 0.00 0.00 0.00
20260502111822 -1 100 0.0 0.0 0.00 0.00 0.00
20260502110459 -2 100 0.0 0.0 0.00 0.00 0.00
20260502105136 -2 100 0.0 0.0 0.00 0.00 0.00
20260502102454 -17 0.0 0.0 0.00 0.00 0.00
20260502100359 -1 100 0.0 0.0 0.00 0.00 0.00
20260502091027 0 73 0.0 0.0 0.00 0.00 0.00
20260502070959 0 70 0.0 0.0 0.00 0.00 0.00
20260502064314 0 70 0.0 0.0 0.00 0.00 0.00
20260502062951 0 70 0.0 0.0 0.00 0.00 0.00
20260502061629 0 70 0.0 0.0 0.00 0.00 0.00
20260502054943 0 70 0.0 0.0 0.00 0.00 0.00
20260502053620 0 70 0.0 0.0 0.00 0.00 0.00
20260502052258 1 70 0.0 0.0 0.00 0.00 0.00
20260502042923 2 70 0.0 0.0 0.00 0.00 0.00
20260502041558 2 46 3.2 4.8 0.00 0.00 0.00
20260502040233 2 68 0.0 0.0 0.00 0.00 0.00
20260502034911 2 68 0.0 0.0 0.00 0.00 0.00
20260502033550 3 68 0.0 0.0 0.00 0.00 0.00
20260502030902 4 70 0.0 0.0 0.00 0.00 0.00
20260502025540 5 44 0.0 0.0 0.00 0.00 0.00
20260502021531 8 335 1.6 3.2 0.00 0.00 0.00
20260502020208 9 346 3.2 6.4 0.00 0.00 0.00
20260502013522 10 181 1.6 6.4 0.00 0.00 0.00
20260502012159 11 48 0.0 0.0 0.00 0.00 0.00
20260502010837 11 83 6.4 16.1 0.00 0.00 0.00
20260502005513 11 87 6.4 12.9 0.00 0.00 0.00
20260502002826 12 120 8.0 11.3 0.00 0.00 0.00
20260501233451 13 107 4.8 9.7 0.00 0.00 0.00
20260501232125 13 52 16.1 22.5 0.00 0.00 0.00
20260501230802 13 359 8.0 16.1 0.00 0.00 0.00
20260501214739 13 114 11.3 24.1 0.00 0.00 0.00
20260501212050 14 80 1.6 11.3 0.00 0.00 0.00
20260501202718 13 148 3.2 12.9 0.00 0.00 0.00
20260501201353 13 86 6.4 16.1 0.00 0.00 0.00
20260501200030 13 107 6.4 14.5 0.00 0.00 0.00
20260501194707 13 96 3.2 24.1 0.00 0.00 0.00
20260501185336 12 153 4.8 11.3 0.00 0.00 0.00
20260501182651 11 142 8.0 9.7 0.00 0.00 0.00
20260501180006 11 63 6.4 14.5 0.00 0.00 0.00
20260501173320 11 96 8.0 9.7 0.00 0.00 0.00
20260501170635 10 87 1.6 11.3 0.00 0.00 0.00
20260501162626 8 129 6.4 9.7 0.00 0.00 0.00
20260501161301 9 105 0.0 6.4 0.00 0.00 0.00
20260501155938 8 63 8.0 9.7 0.00 0.00 0.00
20260501142552 6 97 0.0 0.0 0.00 0.00 0.00